Sturgis, MI

6:52 PM EST on February 22, 2017 (GMT -0500)
Kirsch Municipal

Weather History for KIRS - August, 2013

Change the Weather History Date:

Saturday, August 3, 2013

  Actual Average (KHAI) Record (KHAI)
Temperature  
Mean Temperature 68 °F -  
Max Temperature 77 °F 83 °F 98 °F (1964)
Min Temperature 59 °F 58 °F 40 °F (1965)
Cooling Degree Days 4    
Growing Degree Days 18 (Base 50)    
Moisture  
Dew Point 58 °F    
Average Humidity 74    
Maximum Humidity 100    
Minimum Humidity 38    
Precipitation  
Precipitation 0.00 in - - ()
Sea Level Pressure  
Sea Level Pressure 30.02 in    
Wind  
Wind Speed 3 mph (NNW)    
Max Wind Speed 14 mph    
Max Gust Speed 20 mph    
Visibility 7 miles    
Events Fog    
Averages and records for this station are not official NWS values.
T = Trace of Precipitation, MM = Missing Value Source: NWS Daily Summary

Daily Weather History Graph

Daily Weather History Graph

Search for Another Location

Airport or City:

Trip Planner

Search our weather history database for the weather conditions in past years. The results will help you decide how hot, cold, wet, or windy it might be!

Date:

Astronomy

Aug. 03, 2013 Rise Set
Actual Time 6:37 AM EDT 8:57 PM EDT
Civil Twilight 6:06 AM EDT 9:28 PM EDT
Nautical Twilight 5:28 AM EDT 10:06 PM EDT
Astronomical Twilight 4:45 AM EDT 10:49 PM EDT
Moon 3:46 AM EDT (8/3) 6:39 PM EDT (8/3)
Length of Visible Light 15h 21m
Length of Day
14h 19m
Waning Crescent, 9% of the Moon is Illuminated
Aug 3
Waning Crescent
Aug 6
New
Aug 14
First Quarter
Aug 20
Full
Aug 28
Last Quarter

Hourly Weather History & Observations

Time (EDT) Temp. Dew Point Humidity Pressure Visibility Wind Dir Wind Speed Gust Speed Precip Events Conditions
12:15 AM 66.2 °F 64.4 °F 94% 29.94 in 7.0 mi Calm Calm - N/A   Clear
12:35 AM 66.2 °F 64.4 °F 94% 29.95 in 5.0 mi Calm Calm - N/A   Clear
12:54 AM 64.4 °F 64.4 °F 100% 29.96 in 5.0 mi Calm Calm - N/A   Clear
1:15 AM 66.2 °F 64.4 °F 94% 29.96 in 4.0 mi Calm Calm - N/A   Clear
1:35 AM 64.4 °F 64.4 °F 100% 29.97 in 3.0 mi Calm Calm - N/A   Mostly Cloudy
1:54 AM 66.2 °F 64.4 °F 94% 29.97 in 2.5 mi Calm Calm - N/A   Overcast
2:15 AM 66.2 °F 64.4 °F 94% 29.97 in 2.0 mi Calm Calm - N/A   Overcast
2:35 AM 66.2 °F 66.2 °F 100% 29.96 in 2.0 mi Calm Calm - N/A   Overcast
2:54 AM 64.4 °F 64.4 °F 100% 29.95 in 1.2 mi Calm Calm - N/A   Overcast
3:15 AM 64.4 °F 64.4 °F 100% 29.96 in 0.8 mi NNW 3.5 mph - N/A   Overcast
3:34 AM 64.4 °F 64.4 °F 100% 29.96 in 1.2 mi Calm Calm - N/A   Overcast
3:54 AM 64.4 °F 64.4 °F 100% 29.96 in 0.5 mi Calm Calm - N/A Fog Fog
4:15 AM 64.4 °F 64.4 °F 100% 29.96 in 0.2 mi Calm Calm - N/A Fog Fog
4:34 AM 64.4 °F 64.4 °F 100% 29.96 in 0.2 mi Calm Calm - N/A Fog Fog
4:55 AM 64.4 °F 64.4 °F 100% 29.97 in 0.2 mi Calm Calm - N/A Fog Fog
5:15 AM 64.4 °F 64.4 °F 100% 29.97 in 0.2 mi Calm Calm - N/A Fog Fog
5:34 AM 64.4 °F 64.4 °F 100% 29.97 in 0.2 mi Calm Calm - N/A Fog Fog
5:55 AM 64.4 °F 64.4 °F 100% 29.98 in 0.2 mi Calm Calm - N/A Fog Fog
6:14 AM 64.4 °F 64.4 °F 100% 29.98 in 0.5 mi Calm Calm - N/A Fog Fog
6:35 AM 64.4 °F 64.4 °F 100% 29.99 in 1.2 mi Calm Calm - N/A   Overcast
6:55 AM 64.4 °F 64.4 °F 100% 29.99 in 2.0 mi Calm Calm - N/A   Overcast
7:14 AM 64.4 °F 64.4 °F 100% 29.99 in 0.5 mi Calm Calm - N/A Fog Fog
7:35 AM 64.4 °F 64.4 °F 100% 30.00 in 1.2 mi Calm Calm - N/A   Overcast
7:55 AM 64.4 °F 64.4 °F 100% 30.01 in 1.8 mi Calm Calm - N/A   Overcast
8:14 AM 64.4 °F 64.4 °F 100% 30.01 in 2.5 mi Calm Calm - N/A   Mostly Cloudy
8:35 AM 64.4 °F 64.4 °F 100% 30.01 in 4.0 mi North 3.5 mph - N/A   Mostly Cloudy
8:54 AM 64.4 °F 64.4 °F 100% 30.02 in 5.0 mi NE 3.5 mph - N/A   Scattered Clouds
9:14 AM 66.2 °F 64.4 °F 94% 30.01 in 5.0 mi Calm Calm - N/A   Scattered Clouds
9:35 AM 66.2 °F 64.4 °F 94% 30.01 in 7.0 mi NNE 4.6 mph - N/A   Clear
9:54 AM 68.0 °F 64.4 °F 88% 30.01 in 10.0 mi NE 4.6 mph - N/A   Clear
10:14 AM 69.8 °F 64.4 °F 83% 30.01 in 10.0 mi Calm Calm - N/A   Clear
10:35 AM 71.6 °F 62.6 °F 73% 30.02 in 10.0 mi Calm Calm - N/A   Clear
10:54 AM 71.6 °F 60.8 °F 69% 30.02 in 10.0 mi North 3.5 mph - N/A   Clear
11:15 AM 73.4 °F 62.6 °F 69% 30.02 in 10.0 mi North 5.8 mph - N/A   Clear
11:35 AM 73.4 °F 60.8 °F 65% 30.02 in 10.0 mi NW 6.9 mph - N/A   Clear
11:54 AM 73.4 °F 60.8 °F 65% 30.02 in 10.0 mi NNW 6.9 mph - N/A   Clear
12:15 PM 73.4 °F 57.2 °F 57% 30.02 in 10.0 mi NNE 8.1 mph - N/A   Clear
12:35 PM 73.4 °F 55.4 °F 53% 30.03 in 10.0 mi NW 5.8 mph - N/A   Scattered Clouds
12:54 PM 75.2 °F 55.4 °F 50% 30.03 in 10.0 mi NNW 4.6 mph - N/A   Scattered Clouds
1:15 PM 75.2 °F 57.2 °F 53% 30.03 in 10.0 mi NNW 5.8 mph - N/A   Clear
1:35 PM 73.4 °F 57.2 °F 57% 30.03 in 10.0 mi NNW 9.2 mph - N/A   Scattered Clouds
1:54 PM 73.4 °F 55.4 °F 53% 30.03 in 10.0 mi NNW 9.2 mph 16.1 mph N/A   Scattered Clouds
2:15 PM 75.2 °F 55.4 °F 50% 30.04 in 10.0 mi NNW 12.7 mph - N/A   Clear
2:35 PM 75.2 °F 53.6 °F 47% 30.03 in 10.0 mi NW 9.2 mph - N/A   Scattered Clouds
2:54 PM 77.0 °F 55.4 °F 47% 30.03 in 10.0 mi NNW 11.5 mph 19.6 mph N/A   Scattered Clouds
3:15 PM 73.4 °F 53.6 °F 50% 30.03 in 10.0 mi NNW 11.5 mph 16.1 mph N/A   Scattered Clouds
3:34 PM 75.2 °F 53.6 °F 47% 30.04 in 10.0 mi NW 8.1 mph - N/A   Scattered Clouds
3:54 PM 75.2 °F 51.8 °F 44% 30.04 in 10.0 mi NW 13.8 mph - N/A   Scattered Clouds
4:15 PM 77.0 °F 51.8 °F 41% 30.04 in 10.0 mi NW 12.7 mph 17.3 mph N/A   Clear
4:34 PM 75.2 °F 51.8 °F 44% 30.04 in 10.0 mi NW 11.5 mph 18.4 mph N/A   Clear
4:55 PM 75.2 °F 51.8 °F 44% 30.03 in 10.0 mi NNW 10.4 mph - N/A   Clear
5:15 PM 75.2 °F 50.0 °F 41% 30.04 in 10.0 mi NW 11.5 mph - N/A   Clear
5:34 PM 75.2 °F 48.2 °F 38% 30.04 in 10.0 mi NW 9.2 mph 17.3 mph N/A   Clear
5:55 PM 75.2 °F 48.2 °F 38% 30.04 in 10.0 mi NW 10.4 mph 17.3 mph N/A   Clear
6:15 PM 75.2 °F 50.0 °F 41% 30.04 in 10.0 mi NW 9.2 mph - N/A   Clear
6:34 PM 73.4 °F 51.8 °F 47% 30.05 in 10.0 mi NW 10.4 mph - N/A   Scattered Clouds
6:55 PM 71.6 °F 53.6 °F 53% 30.05 in 10.0 mi NNW 11.5 mph 18.4 mph N/A   Scattered Clouds
7:15 PM 71.6 °F 51.8 °F 50% 30.05 in 10.0 mi NW 11.5 mph - N/A   Clear
7:34 PM 71.6 °F 51.8 °F 50% 30.06 in 10.0 mi NW 10.4 mph - N/A   Clear
7:55 PM 69.8 °F 51.8 °F 53% 30.05 in 10.0 mi NW 5.8 mph - N/A   Clear
8:15 PM 69.8 °F 53.6 °F 56% 30.05 in 10.0 mi NW 3.5 mph - N/A   Clear
8:35 PM 68.0 °F 53.6 °F 60% 30.05 in 10.0 mi NW 4.6 mph - N/A   Clear
8:55 PM 64.4 °F 53.6 °F 68% 30.05 in 10.0 mi Calm Calm - N/A   Clear
9:14 PM 64.4 °F 51.8 °F 64% 30.05 in 10.0 mi NW 4.6 mph - N/A   Clear
9:35 PM 62.6 °F 51.8 °F 68% 30.06 in 10.0 mi NW 3.5 mph - N/A   Clear
9:55 PM 62.6 °F 51.8 °F 68% 30.06 in 10.0 mi NW 5.8 mph - N/A   Clear
10:14 PM 62.6 °F 51.8 °F 68% 30.07 in 10.0 mi NW 3.5 mph - N/A   Clear
10:35 PM 60.8 °F 51.8 °F 72% 30.08 in 10.0 mi NNW 4.6 mph - N/A   Clear
10:54 PM 60.8 °F 51.8 °F 72% 30.08 in 10.0 mi NW 3.5 mph - N/A   Clear
11:14 PM 60.8 °F 51.8 °F 72% 30.08 in 10.0 mi NW 4.6 mph - N/A   Clear
11:35 PM 60.8 °F 51.8 °F 72% 30.09 in 10.0 mi NNW 3.5 mph - N/A   Clear
11:54 PM 59.0 °F 51.8 °F 77% 30.09 in 10.0 mi NNW 3.5 mph - N/A   Clear